Humidity-temperature Sensor

Selected Measurement Type: Relative Humidity

 
Relative Humidity [%]     6 entries per hour
Showing data from 5/20/2022 (00:00:00 Z) to 5/17/2022 (00:01:00 Z)
Previous Next [ Day | 3-Days | 7-Days ]
First Last
Prev [ Day | 3-Days | 7-Days ] Next
First Last

Start Time:     :
End Time:     :     
Time (in GMT) :00 :50 :40 :30 :20 :10
Previous Next [ Day | 3-Days | 7-Days ]
First Last
Prev [ Day | 3-Days | 7-Days ] Next
First Last


123 => good data
MM => data is determined as missing
-- => data not received/configured
Back to Top Back to Top
5/20/2022 00:00 to 23:10 98.83 98.38 98.34 97.91 97.52 97.07
5/19/2022 23:00 to 22:10 97.01 97.01 97.97 98.48 99.06 99.84
5/19/2022 22:00 to 21:10 100.33 100.77 100.85 100.89 100.91 100.91
5/19/2022 21:00 to 20:10 100.89 100.72 100.81 100.36 100.50 100.50
5/19/2022 20:00 to 19:10 100.38 100.36 100.07 100.21 100.83 100.89
5/19/2022 19:00 to 18:10 100.91 100.91 100.89 100.91 100.81 100.58
5/19/2022 18:00 to 17:10 100.42 99.64 98.90 97.48 95.94 96.24
5/19/2022 17:00 to 16:10 95.42 95.11 94.66 95.22 96.37 97.42
5/19/2022 16:00 to 15:10 98.42 98.32 98.36 98.24 98.09 97.79
5/19/2022 15:00 to 14:10 97.15 96.41 93.96 89.57 89.42 90.16
5/19/2022 14:00 to 13:10 90.45 90.61 90.74 89.59 89.67 89.20
5/19/2022 13:00 to 12:10 89.40 89.55 89.01 88.93 88.97 89.92
5/19/2022 12:00 to 11:10 90.88 92.14 93.10 92.59 92.73 93.59
5/19/2022 11:00 to 10:10 94.58 94.77 94.40 94.56 93.94 93.27
5/19/2022 10:00 to 9:10 92.90 91.99 91.54 90.96 90.88 90.94
5/19/2022 09:00 to 8:10 91.35 91.44 91.23 91.44 91.48 91.31
5/19/2022 08:00 to 7:10 90.80 90.06 90.02 90.08 89.61 89.03
5/19/2022 07:00 to 6:10 89.11 89.65 89.98 90.31 91.23 92.71
5/19/2022 06:00 to 5:10 93.64 93.76 93.61 93.51 93.68 94.13
5/19/2022 05:00 to 4:10 94.35 94.37 94.40 94.95 95.59 95.77
5/19/2022 04:00 to 3:10 96.14 96.49 96.37 96.06 95.07 93.33
5/19/2022 03:00 to 2:10 91.72 89.48 89.63 89.81 90.02 89.75
5/19/2022 02:00 to 1:10 89.34 88.79 88.56 88.29 88.58 88.56
5/19/2022 01:00 to 0:10 88.64 88.44 88.46 88.13 87.86 88.00
5/19/2022 00:00 to 23:10 88.00 87.70 88.21 87.98 87.78 88.21
5/18/2022 23:00 to 22:10 88.29 88.37 88.29 87.86 87.53 88.00
5/18/2022 22:00 to 21:10 87.86 87.76 88.46 88.54 88.31 88.21
5/18/2022 21:00 to 20:10 88.64 88.33 88.62 88.91 89.73 90.68
5/18/2022 20:00 to 19:10 90.63 90.72 90.55 90.14 90.08 89.81
5/18/2022 19:00 to 18:10 89.32 89.85 90.29 89.96 89.13 87.88
5/18/2022 18:00 to 17:10 87.55 88.15 88.40 88.37 88.91 88.89
5/18/2022 17:00 to 16:10 88.46 88.17 87.72 87.51 87.74 87.82
5/18/2022 16:00 to 15:10 87.45 87.39 87.53 87.88 87.70 88.19
5/18/2022 15:00 to 14:10 88.13 88.07 88.40 88.40 88.64 88.52
5/18/2022 14:00 to 13:10 88.56 88.70 88.60 88.21 88.44 88.60
5/18/2022 13:00 to 12:10 89.81 90.66 91.37 92.46 92.67 91.99
5/18/2022 12:00 to 11:10 91.23 90.37 90.39 89.83 89.53 89.57
5/18/2022 11:00 to 10:10 89.96 90.27 90.96 90.98 90.86 90.88
5/18/2022 10:00 to 9:10 91.21 91.52 91.66 91.09 91.40 92.18
5/18/2022 09:00 to 8:10 93.10 93.72 93.84 93.00 92.75 93.22
5/18/2022 08:00 to 7:10 93.43 93.33 92.90 92.75 93.00 93.16
5/18/2022 07:00 to 6:10 93.33 93.47 93.70 93.86 93.64 92.96
5/18/2022 06:00 to 5:10 92.18 90.74 89.85 88.81 87.61 87.68
5/18/2022 05:00 to 4:10 88.29 88.68 88.93 89.36 89.50 90.20
5/18/2022 04:00 to 3:10 90.74 91.81 92.46 92.77 93.10 92.81
5/18/2022 03:00 to 2:10 93.04 92.98 92.90 92.67 92.24 91.74
5/18/2022 02:00 to 1:10 92.30 92.96 93.53 94.00 94.52 95.05
5/18/2022 01:00 to 0:10 95.14 95.07 94.66 94.50 94.42 94.07
5/18/2022 00:00 to 23:10 94.50 94.62 94.31 93.74 93.35 93.35
5/17/2022 23:00 to 22:10 92.69 92.48 91.93 91.74 92.38 92.85
5/17/2022 22:00 to 21:10 93.04 93.47 93.61 93.51 93.53 93.37
5/17/2022 21:00 to 20:10 93.24 93.12 93.27 93.35 93.20 93.14
5/17/2022 20:00 to 19:10 93.04 92.71 91.97 92.11 92.36 92.32
5/17/2022 19:00 to 18:10 92.32 92.11 91.40 91.33 91.46 91.25
5/17/2022 18:00 to 17:10 91.31 91.09 90.84 90.68 91.37 92.05
5/17/2022 17:00 to 16:10 92.57 93.20 93.33 93.39 93.45 93.45
5/17/2022 16:00 to 15:10 93.39 93.43 93.20 93.18 93.37 93.47
5/17/2022 15:00 to 14:10 93.59 93.70 93.78 93.45 92.69 91.70
5/17/2022 14:00 to 13:10 91.44 91.21 91.13 90.86 90.16 89.98
5/17/2022 13:00 to 12:10 90.96 92.07 92.53 92.73 92.83 92.81
5/17/2022 12:00 to 11:10 92.55 92.16 92.03 91.60 91.42 91.54
5/17/2022 11:00 to 10:10 91.62 92.22 92.92 93.70 93.94 94.27
5/17/2022 10:00 to 9:10 94.46 94.62 94.72 94.79 95.32 95.71
5/17/2022 09:00 to 8:10 96.14 96.35 96.08 96.29 96.31 96.37
5/17/2022 08:00 to 7:10 96.22 96.00 95.98 95.53 95.14 94.58
5/17/2022 07:00 to 6:10 94.23 93.80 93.31 93.33 93.53 93.74
5/17/2022 06:00 to 5:10 93.22 92.79 92.22 92.32 92.75 93.00
5/17/2022 05:00 to 4:10 -- -- -- -- -- --
5/17/2022 04:00 to 3:10 94.72 94.85 94.48 94.35 94.13 94.00
5/17/2022 03:00 to 2:10 93.98 94.13 94.03 94.07 94.15 94.23
5/17/2022 02:00 to 1:10 94.29 94.50 94.54 94.93 95.07 95.30
5/17/2022 01:00 to 0:10 95.71 95.96 96.14 96.18 96.27 96.29